,,,PA_Meas_PMT16A,,PR_Meas_QMR101_102,,RH_Meas_QMH101,,SR_Meas_QMS101,,TA_Meas_QMH101,,GenWind,,GenWind,
date,time,status,PA,status,PR,status,RH,status,SR,status,TA,status,DirAvg,status,SpdAvg,
2010-11-24, 00:00:05,VALID,1004.18,VALID,0,INVALID,163.632,VALID,0.100563,VALID,24.6556,VALID,360,VALID,0.601563,
2010-11-24, 00:01:05,VALID,1004.18,VALID,0,INVALID,163.647,VALID,0,VALID,24.6556,VALID,360,VALID,0.489062,
2010-11-24, 00:02:05,VALID,1004.16,VALID,0,INVALID,163.662,VALID,0.100563,VALID,24.6361,VALID,360,VALID,0.523438,
2010-11-24, 00:03:05,VALID,1004.17,VALID,0,INVALID,163.662,VALID,0.100563,VALID,24.6574,VALID,360,VALID,0.2625,
2010-11-24, 00:04:05,VALID,1004.14,VALID,0,INVALID,163.617,VALID,0,VALID,24.6556,VALID,360,VALID,0.151172,
2010-11-24, 00:05:05,VALID,1004.19,VALID,0,INVALID,163.647,VALID,0,VALID,24.675,VALID,360,VALID,0.280469,
2010-11-24, 00:06:05,VALID,1004.19,VALID,0,INVALID,163.639,VALID,0,VALID,24.6945,VALID,360,VALID,0.0679687,
2010-11-24, 00:07:05,VALID,1004.23,VALID,0,INVALID,163.647,VALID,0,VALID,24.7353,VALID,2,VALID,0.371094,
2010-11-24, 00:08:05,VALID,1004.23,VALID,0,INVALID,163.632,VALID,0,VALID,24.7335,VALID,2,VALID,0.321484,
2010-11-24, 00:09:05,VALID,1004.24,VALID,0,INVALID,163.678,VALID,0,VALID,24.7529,VALID,65,VALID,0.360938,
2010-11-24, 00:10:05,VALID,1004.25,VALID,0,INVALID,163.639,VALID,0.100563,VALID,24.7743,VALID,65,VALID,0.348437,
2010-11-24, 00:11:05,VALID,1004.24,VALID,0,INVALID,163.647,VALID,0,VALID,24.7548,VALID,65,VALID,0.371875,
2010-11-24, 00:12:05,VALID,1004.22,VALID,0,INVALID,163.647,VALID,0,VALID,24.7335,VALID,65,VALID,0.296484,
2010-11-24, 00:13:05,VALID,1004.23,VALID,0,INVALID,163.639,VALID,0,VALID,24.7724,VALID,65,VALID,0.135547,
2010-11-24, 00:14:05,VALID,1004.21,VALID,0,INVALID,163.647,VALID,0,VALID,24.7724,VALID,65,VALID,0.185156,
2010-11-24, 00:15:05,VALID,1004.19,VALID,0,INVALID,163.617,VALID,0,VALID,24.7919,VALID,65,VALID,0.345313,
2010-11-24, 00:16:05,VALID,1004.17,VALID,0,INVALID,163.655,VALID,0,VALID,24.8327,VALID,65,VALID,0.299609,
2010-11-24, 00:17:05,VALID,1004.16,VALID,0,INVALID,163.632,VALID,0,VALID,24.8327,VALID,65,VALID,0.234766,
2010-11-24, 00:18:05,VALID,1004.13,VALID,0,INVALID,163.632,VALID,0,VALID,24.8113,VALID,65,VALID,0.00703125,
2010-11-24, 00:19:04,VALID,1004.09,VALID,0,INVALID,163.632,VALID,0,VALID,24.8113,VALID,65,VALID,0.311328,
2010-11-24, 00:20:04,VALID,1004.05,VALID,0,INVALID,163.655,VALID,0,VALID,24.8327,VALID,65,VALID,0.425391,
2010-11-24, 00:21:04,VALID,1004.01,VALID,0,INVALID,163.655,VALID,0,VALID,24.8308,VALID,65,VALID,0.347656,
2010-11-24, 00:22:04,VALID,1003.99,VALID,0,INVALID,163.647,VALID,0.100563,VALID,24.8308,VALID,65,VALID,0.252344,
2010-11-24, 00:23:04,VALID,1004.01,VALID,0,INVALID,163.624,VALID,0,VALID,24.8113,VALID,65,VALID,0.291797,
2010-11-24, 00:24:04,VALID,1004.03,VALID,0,INVALID,163.632,VALID,0.100563,VALID,24.8113,VALID,65,VALID,0.451562,
2010-11-24, 00:25:04,VALID,1004.05,VALID,0,INVALID,163.609,VALID,0,VALID,24.8113,VALID,65,VALID,0.324609,
2010-11-24, 00:26:04,VALID,1004.11,VALID,0,INVALID,163.609,VALID,0.100563,VALID,24.8113,VALID,65,VALID,0.147266,
2010-11-24, 00:27:04,VALID,1004.06,VALID,0,INVALID,163.624,VALID,0,VALID,24.8308,VALID,65,VALID,0.273047,
2010-11-24, 00:28:04,VALID,1004.08,VALID,0,INVALID,163.617,VALID,0,VALID,24.8503,VALID,51,VALID,0.579297,
2010-11-24, 00:29:04,VALID,1004.09,VALID,0,INVALID,163.609,VALID,0,VALID,24.8503,VALID,51,VALID,0.425,
2010-11-24, 00:30:04,VALID,1004.07,VALID,0,INVALID,163.632,VALID,0,VALID,24.8308,VALID,27,VALID,0.442187,
2010-11-24, 00:31:04,VALID,1004.03,VALID,0,INVALID,163.609,VALID,0,VALID,24.8484,VALID,356,VALID,0.624219,
2010-11-24, 00:32:04,VALID,1004.03,VALID,0,INVALID,163.609,VALID,0,VALID,24.8892,VALID,356,VALID,0.532812,
2010-11-24, 00:33:04,VALID,1003.99,VALID,0,INVALID,163.639,VALID,0,VALID,24.9087,VALID,346,VALID,0.589453,
2010-11-24, 00:34:04,VALID,1003.98,VALID,0,INVALID,163.609,VALID,0,VALID,24.9282,VALID,346,VALID,0.459375,
2010-11-24, 00:35:04,VALID,1003.96,VALID,0,INVALID,163.594,VALID,0.100563,VALID,24.9282,VALID,346,VALID,0.387109,
2010-11-24, 00:36:04,VALID,1003.92,VALID,0,INVALID,163.609,VALID,0,VALID,24.969,VALID,346,VALID,0.399219,
2010-11-24, 00:37:04,VALID,1003.95,VALID,0,INVALID,163.624,VALID,0,VALID,24.9885,VALID,346,VALID,0.179297,
2010-11-24, 00:38:04,VALID,1003.94,VALID,0,INVALID,163.617,VALID,0,VALID,24.9476,VALID,346,VALID,0.00195313,
2010-11-24, 00:39:04,VALID,1003.96,VALID,0,INVALID,163.617,VALID,0.100563,VALID,24.9866,VALID,35,VALID,0.579687,
2010-11-24, 00:40:04,VALID,1003.96,VALID,0,INVALID,163.632,VALID,0,VALID,24.9866,VALID,59,VALID,0.649609,
2010-11-24, 00:41:04,VALID,1003.99,VALID,0,INVALID,163.617,VALID,0,VALID,24.9866,VALID,83,VALID,0.685156,
2010-11-24, 00:42:04,VALID,1003.99,VALID,0,INVALID,163.617,VALID,0.100563,VALID,25.006,VALID,83,VALID,0.468359,
2010-11-24, 00:43:04,VALID,1004,VALID,0,INVALID,163.601,VALID,0.100563,VALID,24.9866,VALID,83,VALID,0.330469,
2010-11-24, 00:44:04,VALID,1004.02,VALID,0,INVALID,163.624,VALID,0,VALID,25.0274,VALID,83,VALID,0.135547,
2010-11-24, 00:45:04,VALID,1004.02,VALID,0,INVALID,163.632,VALID,0,VALID,25.006,VALID,83,VALID,0.275,
2010-11-24, 00:46:04,VALID,1004.01,VALID,0,INVALID,163.632,VALID,0,VALID,25.0469,VALID,83,VALID,0,
2010-11-24, 00:47:04,VALID,1004,VALID,0,INVALID,163.609,VALID,0,VALID,25.006,VALID,83,VALID,0.165234,
2010-11-24, 00:48:04,VALID,1004,VALID,0,INVALID,163.609,VALID,0,VALID,25.0469,VALID,83,VALID,0.0488281,
2010-11-24, 00:49:04,VALID,1003.97,VALID,0,INVALID,163.609,VALID,0,VALID,25.0255,VALID,83,VALID,0.192578,
2010-11-24, 00:50:04,VALID,1003.99,VALID,0,INVALID,163.632,VALID,0,VALID,25.0663,VALID,83,VALID,0,
2010-11-24, 00:51:04,VALID,1003.97,VALID,0,INVALID,163.624,VALID,0,VALID,25.0663,VALID,83,VALID,0.207422,
2010-11-24, 00:52:04,VALID,1003.97,VALID,0,INVALID,163.594,VALID,0,VALID,25.0858,VALID,83,VALID,0.198047,
2010-11-24, 00:53:04,VALID,1003.93,VALID,0,INVALID,163.609,VALID,0,VALID,25.0858,VALID,83,VALID,0.0839844,
2010-11-24, 00:54:04,VALID,1003.91,VALID,0,INVALID,163.609,VALID,0,VALID,25.0839,VALID,83,VALID,0.366016,
2010-11-24, 00:55:04,VALID,1003.89,VALID,0,INVALID,163.594,VALID,0,VALID,25.0839,VALID,83,VALID,0.344922,
2010-11-24, 00:56:04,VALID,1003.86,VALID,0,INVALID,163.655,VALID,0,VALID,25.1053,VALID,83,VALID,0.432813,
2010-11-24, 00:57:04,VALID,1003.84,VALID,0,INVALID,163.609,VALID,0,VALID,25.0858,VALID,84,VALID,0.419922,
2010-11-24, 00:58:04,VALID,1003.81,VALID,0,INVALID,163.601,VALID,0,VALID,25.1053,VALID,84,VALID,0.275,
2010-11-24, 00:59:04,VALID,1003.81,VALID,0,INVALID,163.609,VALID,0,VALID,25.1248,VALID,83,VALID,0.2875,
2010-11-24, 01:00:04,VALID,1003.78,VALID,0,INVALID,163.594,VALID,0,VALID,25.1248,VALID,75,VALID,0.226172,
2010-11-24, 01:01:04,VALID,1003.71,VALID,0,INVALID,163.624,VALID,0,VALID,25.1248,VALID,72,VALID,0.288672,
2010-11-24, 01:02:04,VALID,1003.71,VALID,0,INVALID,163.624,VALID,0,VALID,25.1248,VALID,57,VALID,0.444141,
2010-11-24, 01:03:04,VALID,1003.66,VALID,0,INVALID,163.601,VALID,0,VALID,25.1442,VALID,56,VALID,0.333984,
2010-11-24, 01:04:04,VALID,1003.61,VALID,0,INVALID,163.594,VALID,0,VALID,25.1229,VALID,51,VALID,0.505469,
2010-11-24, 01:05:04,VALID,1003.56,VALID,0,INVALID,163.609,VALID,0,VALID,25.1637,VALID,37,VALID,0.535156,
2010-11-24, 01:06:04,VALID,1003.56,VALID,0,INVALID,163.617,VALID,0,VALID,25.1248,VALID,33,VALID,0.587109,
2010-11-24, 01:07:04,VALID,1003.54,VALID,0,INVALID,163.617,VALID,0,VALID,25.1442,VALID,18,VALID,0.778906,
2010-11-24, 01:08:04,VALID,1003.5,VALID,0,INVALID,163.609,VALID,0,VALID,25.1656,VALID,17,VALID,0.587891,
2010-11-24, 01:09:04,VALID,1003.52,VALID,0,INVALID,163.617,VALID,0,VALID,25.1637,VALID,19,VALID,0.881641,
2010-11-24, 01:10:04,VALID,1003.51,VALID,0,INVALID,163.609,VALID,0,VALID,25.1813,VALID,17,VALID,0.731641,
2010-11-24, 01:11:04,VALID,1003.47,VALID,0,INVALID,163.609,VALID,0,VALID,25.2221,VALID,28,VALID,0.784375,
2010-11-24, 01:12:04,VALID,1003.44,VALID,0,INVALID,163.609,VALID,0,VALID,25.2611,VALID,24,VALID,0.792188,
2010-11-24, 01:13:04,VALID,1003.43,VALID,0,INVALID,163.586,VALID,0,VALID,25.2806,VALID,17,VALID,1.11133,
2010-11-24, 01:14:04,VALID,1003.41,VALID,0,INVALID,163.617,VALID,0,VALID,25.3195,VALID,29,VALID,0.68125,
2010-11-24, 01:15:04,VALID,1003.43,VALID,0,INVALID,163.594,VALID,0,VALID,25.339,VALID,29,VALID,0.593359,
2010-11-24, 01:16:04,VALID,1003.39,VALID,0,INVALID,163.594,VALID,0,VALID,25.3584,VALID,29,VALID,0.426172,
2010-11-24, 01:17:04,VALID,1003.38,VALID,0,INVALID,163.571,VALID,0,VALID,25.339,VALID,29,VALID,0.621484,
2010-11-24, 01:18:04,VALID,1003.32,VALID,0,INVALID,163.624,VALID,0,VALID,25.339,VALID,15,VALID,0.699609,
2010-11-24, 01:19:04,VALID,1003.28,VALID,0,INVALID,163.624,VALID,0,VALID,25.3195,VALID,20,VALID,1.03281,
2010-11-24, 01:20:04,VALID,1003.3,VALID,0,INVALID,163.609,VALID,0,VALID,25.3195,VALID,24,VALID,0.541797,
2010-11-24, 01:21:04,VALID,1003.26,VALID,0,INVALID,163.601,VALID,0,VALID,25.3584,VALID,23,VALID,0.660937,
2010-11-24, 01:22:04,VALID,1003.25,VALID,0,INVALID,163.601,VALID,0,VALID,25.3779,VALID,22,VALID,0.471484,
2010-11-24, 01:23:04,VALID,1003.26,VALID,0,INVALID,163.601,VALID,0,VALID,25.3779,VALID,22,VALID,0.502344,
2010-11-24, 01:24:04,VALID,1003.23,VALID,0,INVALID,163.578,VALID,0,VALID,25.3779,VALID,22,VALID,0.305078,
2010-11-24, 01:25:04,VALID,1003.19,VALID,0,INVALID,163.586,VALID,0,VALID,25.337,VALID,22,VALID,0.137891,
2010-11-24, 01:26:04,VALID,1003.18,VALID,0,INVALID,163.601,VALID,0,VALID,25.3195,VALID,22,VALID,0.241406,
2010-11-24, 01:27:04,VALID,1003.19,VALID,0,INVALID,163.617,VALID,0,VALID,25.3195,VALID,22,VALID,0.00703125,
2010-11-24, 01:28:04,VALID,1003.17,VALID,0,INVALID,163.594,VALID,0,VALID,25.339,VALID,21,VALID,0.275391,
2010-11-24, 01:29:04,VALID,1003.19,VALID,0,INVALID,163.609,VALID,0,VALID,25.3195,VALID,20,VALID,0.00195313,
2010-11-24, 01:30:04,VALID,1003.17,VALID,0,INVALID,163.601,VALID,0,VALID,25.3,VALID,23,VALID,0.664453,
2010-11-24, 01:31:04,VALID,1003.16,VALID,0,INVALID,163.609,VALID,0,VALID,25.3019,VALID,23,VALID,0.260547,
2010-11-24, 01:32:04,VALID,1003.19,VALID,0,INVALID,163.617,VALID,0,VALID,25.2611,VALID,23,VALID,0.116406,
2010-11-24, 01:33:04,VALID,1003.18,VALID,0,INVALID,163.624,VALID,0,VALID,25.2611,VALID,23,VALID,0.4125,
2010-11-24, 01:34:04,VALID,1003.21,VALID,0,INVALID,163.609,VALID,0,VALID,25.2416,VALID,23,VALID,0.364062,
2010-11-24, 01:35:04,VALID,1003.28,VALID,0,INVALID,163.609,VALID,0,VALID,25.263,VALID,23,VALID,0.320703,
2010-11-24, 01:36:04,VALID,1003.28,VALID,0,INVALID,163.624,VALID,0,VALID,25.2007,VALID,23,VALID,0.317187,
2010-11-24, 01:37:04,VALID,1003.29,VALID,0,INVALID,163.594,VALID,0,VALID,25.1813,VALID,23,VALID,0.104297,
2010-11-24, 01:38:04,VALID,1003.31,VALID,0,INVALID,163.586,VALID,0,VALID,25.1813,VALID,23,VALID,0.276563,
2010-11-24, 01:39:04,VALID,1003.3,VALID,0,INVALID,163.632,VALID,0,VALID,25.2046,VALID,23,VALID,0.167187,
2010-11-24, 01:40:04,VALID,1003.3,VALID,0,INVALID,163.617,VALID,0,VALID,25.1637,VALID,23,VALID,0.355469,
2010-11-24, 01:41:04,VALID,1003.35,VALID,0,INVALID,163.601,VALID,0,VALID,25.1832,VALID,159,VALID,0.847656,
2010-11-24, 01:42:04,VALID,1003.35,VALID,0,INVALID,163.594,VALID,0,VALID,25.1637,VALID,178,VALID,0.961719,
2010-11-24, 01:43:04,VALID,1003.36,VALID,0,INVALID,163.609,VALID,0,VALID,25.1442,VALID,163,VALID,0.737109,
2010-11-24, 01:44:04,VALID,1003.38,VALID,0,INVALID,163.617,VALID,0,VALID,25.1832,VALID,180,VALID,0.858203,
2010-11-24, 01:45:04,VALID,1003.33,VALID,0,INVALID,163.617,VALID,0,VALID,25.1832,VALID,168,VALID,0.806641,
2010-11-24, 01:46:04,VALID,1003.34,VALID,0,INVALID,163.617,VALID,0,VALID,25.1423,VALID,158,VALID,1.39766,
2010-11-24, 01:47:04,VALID,1003.31,VALID,0,INVALID,163.586,VALID,0,VALID,25.1423,VALID,159,VALID,1.22695,
2010-11-24, 01:48:04,VALID,1003.32,VALID,0,INVALID,163.632,VALID,0,VALID,25.1637,VALID,161,VALID,0.799609,
2010-11-24, 01:49:04,VALID,1003.31,VALID,0,INVALID,163.609,VALID,0,VALID,25.1832,VALID,161,VALID,0.553125,
2010-11-24, 01:50:04,VALID,1003.33,VALID,0,INVALID,163.632,VALID,0,VALID,25.1832,VALID,131,VALID,0.771484,
2010-11-24, 01:51:04,VALID,1003.32,VALID,0,INVALID,163.594,VALID,0,VALID,25.1637,VALID,124,VALID,0.610156,
2010-11-24, 01:52:04,VALID,1003.3,VALID,0,INVALID,163.594,VALID,0,VALID,25.1637,VALID,124,VALID,0.308984,
2010-11-24, 01:53:04,VALID,1003.28,VALID,0,INVALID,163.609,VALID,0,VALID,25.1248,VALID,101,VALID,0.442187,
2010-11-24, 01:54:04,VALID,1003.27,VALID,0,INVALID,163.609,VALID,0,VALID,25.1248,VALID,99,VALID,0.316406,
2010-11-24, 01:55:04,VALID,1003.29,VALID,0,INVALID,163.624,VALID,0,VALID,25.0644,VALID,95,VALID,0.409766,
2010-11-24, 01:56:04,VALID,1003.3,VALID,0,INVALID,163.617,VALID,0,VALID,25.0469,VALID,90,VALID,0.461328,
2010-11-24, 01:57:04,VALID,1003.28,VALID,0,INVALID,163.601,VALID,0,VALID,25.006,VALID,87,VALID,0.258203,
2010-11-24, 01:58:04,VALID,1003.33,VALID,0,INVALID,163.632,VALID,0,VALID,25.0079,VALID,85,VALID,0.360938,
2010-11-24, 01:59:04,VALID,1003.3,VALID,0,INVALID,163.632,VALID,0,VALID,24.9885,VALID,83,VALID,0.553516,
2010-11-24, 02:00:04,VALID,1003.29,VALID,0,INVALID,163.624,VALID,0,VALID,24.9476,VALID,105,VALID,0.647266,
2010-11-24, 02:01:04,VALID,1003.3,VALID,0,INVALID,163.632,VALID,0,VALID,24.9495,VALID,110,VALID,0.285547,
2010-11-24, 02:02:04,VALID,1003.31,VALID,0,INVALID,163.617,VALID,0,VALID,24.9495,VALID,110,VALID,0.0949219,
2010-11-24, 02:03:04,VALID,1003.32,VALID,0,INVALID,163.632,VALID,0,VALID,24.9495,VALID,110,VALID,0.000390625,
2010-11-24, 02:04:04,VALID,1003.3,VALID,0,INVALID,163.632,VALID,0,VALID,24.9106,VALID,110,VALID,0.560938,
2010-11-24, 02:05:04,VALID,1003.3,VALID,0,INVALID,163.624,VALID,0,VALID,24.9106,VALID,108,VALID,0.553516,
2010-11-24, 02:06:04,VALID,1003.3,VALID,0,INVALID,163.639,VALID,0,VALID,24.9125,VALID,108,VALID,0.171484,
2010-11-24, 02:07:04,VALID,1003.28,VALID,0,INVALID,163.647,VALID,0,VALID,24.8697,VALID,100,VALID,0.571875,
2010-11-24, 02:08:04,VALID,1003.28,VALID,0,INVALID,163.655,VALID,0,VALID,24.9125,VALID,101,VALID,0.732813,
2010-11-24, 02:09:04,VALID,1003.26,VALID,0,INVALID,163.632,VALID,0,VALID,24.9106,VALID,100,VALID,0.333203,
2010-11-24, 02:10:04,VALID,1003.25,VALID,0,INVALID,163.632,VALID,0,VALID,24.93,VALID,100,VALID,0.0769531,
2010-11-24, 02:11:04,VALID,1003.19,VALID,0,INVALID,163.655,VALID,0,VALID,24.93,VALID,99,VALID,0,
2010-11-24, 02:12:04,VALID,1003.19,VALID,0,INVALID,163.647,VALID,0,VALID,24.9106,VALID,84,VALID,0,
2010-11-24, 02:13:04,VALID,1003.13,VALID,0,INVALID,163.655,VALID,0,VALID,24.9106,VALID,16,VALID,0.717578,
2010-11-24, 02:14:04,VALID,1003.07,VALID,0,INVALID,163.601,VALID,0,VALID,24.8911,VALID,12,VALID,0.750391,
2010-11-24, 02:15:04,VALID,1003.06,VALID,0,INVALID,163.617,VALID,0,VALID,24.9106,VALID,13,VALID,0.750391,
2010-11-24, 02:16:04,VALID,1003,VALID,0,INVALID,163.632,VALID,0,VALID,24.93,VALID,2,VALID,1.06211,
2010-11-24, 02:17:04,VALID,1002.96,VALID,0,INVALID,163.639,VALID,0.100563,VALID,24.9476,VALID,14,VALID,1.08008,
2010-11-24, 02:18:04,VALID,1002.94,VALID,0,INVALID,163.647,VALID,0,VALID,25.0079,VALID,27,VALID,0.794531,
2010-11-24, 02:19:04,VALID,1002.92,VALID,0,INVALID,163.609,VALID,0,VALID,25.0469,VALID,27,VALID,0.598828,
2010-11-24, 02:20:04,VALID,1002.92,VALID,0,INVALID,163.617,VALID,0,VALID,25.0858,VALID,27,VALID,0.750781,
2010-11-24, 02:21:04,VALID,1002.9,VALID,0,INVALID,163.617,VALID,0,VALID,25.0839,VALID,27,VALID,0.645703,
2010-11-24, 02:22:04,VALID,1002.92,VALID,0,INVALID,163.601,VALID,0,VALID,25.1248,VALID,27,VALID,0.352734,
2010-11-24, 02:23:04,VALID,1002.87,VALID,0,INVALID,163.624,VALID,0,VALID,25.1248,VALID,27,VALID,0.00820312,
2010-11-24, 02:24:04,VALID,1002.84,VALID,0,INVALID,163.624,VALID,0,VALID,25.1442,VALID,27,VALID,0.179297,
2010-11-24, 02:25:04,VALID,1002.83,VALID,0,INVALID,163.617,VALID,0,VALID,25.1442,VALID,27,VALID,0.112109,
2010-11-24, 02:26:04,VALID,1002.83,VALID,0,INVALID,163.624,VALID,0,VALID,25.1034,VALID,27,VALID,0,
2010-11-24, 02:27:04,VALID,1002.79,VALID,0,INVALID,163.632,VALID,0,VALID,25.1053,VALID,27,VALID,0,
2010-11-24, 02:28:04,VALID,1002.79,VALID,0,INVALID,163.609,VALID,0,VALID,25.0644,VALID,27,VALID,0,
2010-11-24, 02:29:04,VALID,1002.8,VALID,0,INVALID,163.617,VALID,0.100563,VALID,25.0663,VALID,27,VALID,0,
2010-11-24, 02:30:04,VALID,1002.79,VALID,0,INVALID,163.601,VALID,0,VALID,25.0469,VALID,196,VALID,0.612891,
2010-11-24, 02:31:04,VALID,1002.8,VALID,0,INVALID,163.639,VALID,0.100563,VALID,25.0274,VALID,192,VALID,0.9,
2010-11-24, 02:32:04,VALID,1002.8,VALID,0,INVALID,163.624,VALID,0,VALID,24.9671,VALID,190,VALID,0.729297,
2010-11-24, 02:33:04,VALID,1002.78,VALID,0,INVALID,163.624,VALID,0,VALID,24.9885,VALID,176,VALID,0.848437,
2010-11-24, 02:34:04,VALID,1002.8,VALID,0,INVALID,163.617,VALID,0,VALID,24.9885,VALID,170,VALID,0.715625,
2010-11-24, 02:35:04,VALID,1002.83,VALID,0,INVALID,163.609,VALID,0,VALID,24.969,VALID,170,VALID,0.588281,
2010-11-24, 02:36:04,VALID,1002.81,VALID,0,INVALID,163.624,VALID,0,VALID,24.9495,VALID,171,VALID,0.514453,
2010-11-24, 02:37:04,VALID,1002.84,VALID,0,INVALID,163.639,VALID,0,VALID,24.9495,VALID,187,VALID,1.08281,
2010-11-24, 02:38:04,VALID,1002.87,VALID,0,INVALID,163.632,VALID,0,VALID,24.9495,VALID,181,VALID,0.951172,
2010-11-24, 02:39:04,VALID,1002.86,VALID,0,INVALID,163.655,VALID,0,VALID,24.9282,VALID,181,VALID,0.363281,
2010-11-24, 02:40:04,VALID,1002.89,VALID,0,INVALID,163.632,VALID,0.100563,VALID,24.969,VALID,180,VALID,0.230859,
2010-11-24, 02:41:04,VALID,1002.88,VALID,0,INVALID,163.624,VALID,0,VALID,24.9495,VALID,167,VALID,0.348437,
2010-11-24, 02:42:04,VALID,1002.9,VALID,0,INVALID,163.647,VALID,0,VALID,24.9495,VALID,37,VALID,0.857031,
2010-11-24, 02:43:04,VALID,1002.91,VALID,0,INVALID,163.632,VALID,0,VALID,24.9087,VALID,18,VALID,0.849219,
2010-11-24, 02:44:04,VALID,1002.93,VALID,0,INVALID,163.624,VALID,0,VALID,24.93,VALID,15,VALID,0.732031,
2010-11-24, 02:45:04,VALID,1002.94,VALID,0,INVALID,163.655,VALID,0,VALID,24.8892,VALID,15,VALID,0.751562,
2010-11-24, 02:46:04,VALID,1002.97,VALID,0,INVALID,163.632,VALID,0,VALID,24.8697,VALID,15,VALID,0.637891,
2010-11-24, 02:47:04,VALID,1003.01,VALID,0,INVALID,163.647,VALID,0,VALID,24.8716,VALID,15,VALID,0.467578,
2010-11-24, 02:48:04,VALID,1003.02,VALID,0,INVALID,163.639,VALID,0,VALID,24.8716,VALID,15,VALID,0.490234,
2010-11-24, 02:49:04,VALID,1003.08,VALID,0,INVALID,163.639,VALID,0,VALID,24.8522,VALID,16,VALID,0.558984,
2010-11-24, 02:50:04,VALID,1003.1,VALID,0,INVALID,163.609,VALID,0,VALID,24.8308,VALID,16,VALID,0.361719,
2010-11-24, 02:51:04,VALID,1003.09,VALID,0,INVALID,163.639,VALID,0,VALID,24.8308,VALID,16,VALID,0.439063,
2010-11-24, 02:52:04,VALID,1003.07,VALID,0,INVALID,163.632,VALID,0,VALID,24.8522,VALID,14,VALID,0.569141,
2010-11-24, 02:53:04,VALID,1003.09,VALID,0,INVALID,163.639,VALID,0.100563,VALID,24.8113,VALID,336,VALID,0.441406,
2010-11-24, 02:54:04,VALID,1003.01,VALID,0,INVALID,163.632,VALID,0,VALID,24.8113,VALID,356,VALID,0.370313,
2010-11-24, 02:55:04,VALID,1002.99,VALID,0,INVALID,163.632,VALID,0,VALID,24.8308,VALID,356,VALID,0.0351563,
2010-11-24, 02:56:04,VALID,1002.94,VALID,0,INVALID,163.647,VALID,0,VALID,24.8327,VALID,356,VALID,0,
2010-11-24, 02:57:04,VALID,1002.94,VALID,0,INVALID,163.639,VALID,0,VALID,24.8716,VALID,356,VALID,0.00429688,
2010-11-24, 02:58:04,VALID,1002.95,VALID,0.5,INVALID,163.655,VALID,0,VALID,24.8113,VALID,356,VALID,0.136328,
2010-11-24, 02:59:04,VALID,1002.99,VALID,0,INVALID,163.624,VALID,0,VALID,24.8113,VALID,356,VALID,0.327734,
2010-11-24, 03:00:04,VALID,1002.99,VALID,0,INVALID,163.639,VALID,0,VALID,24.8132,VALID,356,VALID,0.220703,
2010-11-24, 03:01:04,VALID,1002.99,VALID,0,INVALID,163.624,VALID,0,VALID,24.7919,VALID,356,VALID,0.193359,
2010-11-24, 03:02:04,VALID,1003.03,VALID,0,INVALID,163.655,VALID,0,VALID,24.7937,VALID,356,VALID,0.373047,
2010-11-24, 03:03:04,VALID,1003.02,VALID,0,INVALID,163.617,VALID,0,VALID,24.7529,VALID,356,VALID,0.50625,
2010-11-24, 03:04:04,VALID,1003.03,VALID,0,INVALID,163.655,VALID,0,VALID,24.7548,VALID,356,VALID,0.368359,
2010-11-24, 03:05:04,VALID,1003.02,VALID,0,INVALID,163.624,VALID,0,VALID,24.7353,VALID,356,VALID,0.441016,
2010-11-24, 03:06:04,VALID,1003.07,VALID,0,INVALID,163.655,VALID,0,VALID,24.7548,VALID,356,VALID,0.2875,
2010-11-24, 03:07:04,VALID,1003.04,VALID,0,INVALID,163.647,VALID,0,VALID,24.714,VALID,356,VALID,0.216016,
2010-11-24, 03:08:04,VALID,1003.05,VALID,0,INVALID,163.685,VALID,0,VALID,24.7159,VALID,356,VALID,0.0738281,
2010-11-24, 03:09:04,VALID,1003.06,VALID,0,INVALID,163.639,VALID,0,VALID,24.7159,VALID,44,VALID,0.369141,
2010-11-24, 03:10:04,VALID,1003.03,VALID,0,INVALID,163.662,VALID,0,VALID,24.6945,VALID,100,VALID,0.883594,
2010-11-24, 03:11:04,VALID,1003.04,VALID,0,INVALID,163.662,VALID,0,VALID,24.6945,VALID,104,VALID,1.09258,
2010-11-24, 03:12:04,VALID,1003.01,VALID,0,INVALID,163.655,VALID,0,VALID,24.7159,VALID,100,VALID,1.05039,
2010-11-24, 03:13:04,VALID,1002.99,VALID,0,INVALID,163.662,VALID,0,VALID,24.6945,VALID,101,VALID,0.65625,
2010-11-24, 03:14:04,VALID,1002.95,VALID,0,INVALID,163.624,VALID,0,VALID,24.6556,VALID,90,VALID,0.658203,
2010-11-24, 03:15:04,VALID,1002.91,VALID,0,INVALID,163.662,VALID,0,VALID,24.6556,VALID,89,VALID,0.707812,
2010-11-24, 03:16:04,VALID,1002.86,VALID,0,INVALID,163.655,VALID,0,VALID,24.6361,VALID,58,VALID,0.548828,
2010-11-24, 03:17:04,VALID,1002.82,VALID,0,INVALID,163.632,VALID,0,VALID,24.6574,VALID,37,VALID,0.524609,
2010-11-24, 03:18:04,VALID,1002.76,VALID,0,INVALID,163.647,VALID,0,VALID,24.638,VALID,27,VALID,0.402344,
2010-11-24, 03:19:04,VALID,1002.77,VALID,0,INVALID,163.647,VALID,0,VALID,24.5972,VALID,49,VALID,0.351172,
2010-11-24, 03:20:04,VALID,1002.74,VALID,0,INVALID,163.655,VALID,0,VALID,24.6185,VALID,36,VALID,0.14375,
2010-11-24, 03:21:04,VALID,1002.75,VALID,0,INVALID,163.647,VALID,0,VALID,24.5972,VALID,13,VALID,0.607422,
2010-11-24, 03:22:04,VALID,1002.71,VALID,0,INVALID,163.639,VALID,0,VALID,24.599,VALID,23,VALID,0.966797,
2010-11-24, 03:23:04,VALID,1002.74,VALID,0,INVALID,163.655,VALID,0,VALID,24.5777,VALID,19,VALID,0.202344,
2010-11-24, 03:24:04,VALID,1002.74,VALID,0,INVALID,163.639,VALID,0,VALID,24.5777,VALID,19,VALID,0.117969,
2010-11-24, 03:25:04,VALID,1002.73,VALID,0,INVALID,163.655,VALID,0,VALID,24.5777,VALID,19,VALID,0,
2010-11-24, 03:26:04,VALID,1002.75,VALID,0,INVALID,163.655,VALID,0,VALID,24.5796,VALID,19,VALID,0.0117188,
2010-11-24, 03:27:04,VALID,1002.74,VALID,0,INVALID,163.655,VALID,0,VALID,24.5582,VALID,55,VALID,0.452344,
2010-11-24, 03:28:04,VALID,1002.76,VALID,0,INVALID,163.678,VALID,0,VALID,24.5582,VALID,89,VALID,0.391406,
2010-11-24, 03:29:04,VALID,1002.73,VALID,0,INVALID,163.662,VALID,0,VALID,24.5601,VALID,89,VALID,0.176953,
2010-11-24, 03:30:04,VALID,1002.73,VALID,0,INVALID,163.655,VALID,0,VALID,24.5601,VALID,88,VALID,0.198437,
2010-11-24, 03:31:04,VALID,1002.72,VALID,0,INVALID,163.655,VALID,0,VALID,24.5388,VALID,96,VALID,0.658594,
2010-11-24, 03:32:04,VALID,1002.74,VALID,0,INVALID,163.662,VALID,0,VALID,24.5582,VALID,64,VALID,0.637109,
2010-11-24, 03:33:04,VALID,1002.72,VALID,0,INVALID,163.655,VALID,0,VALID,24.5796,VALID,82,VALID,0.55,
2010-11-24, 03:34:04,VALID,1002.67,VALID,0,INVALID,163.662,VALID,0,VALID,24.599,VALID,89,VALID,0.524609,
2010-11-24, 03:35:04,VALID,1002.67,VALID,0,INVALID,163.655,VALID,0.100563,VALID,24.5777,VALID,90,VALID,0.410156,
2010-11-24, 03:36:04,VALID,1002.66,VALID,0,INVALID,163.647,VALID,0,VALID,24.6185,VALID,91,VALID,0.630859,
2010-11-24, 03:37:04,VALID,1002.61,VALID,0,INVALID,163.662,VALID,0,VALID,24.638,VALID,86,VALID,0.932422,
2010-11-24, 03:38:04,VALID,1002.61,VALID,0,INVALID,163.67,VALID,0.100563,VALID,24.6361,VALID,80,VALID,0.305859,
2010-11-24, 03:39:04,VALID,1002.6,VALID,0,INVALID,163.662,VALID,0,VALID,24.6574,VALID,89,VALID,0.482422,
2010-11-24, 03:40:04,VALID,1002.62,VALID,0,INVALID,163.655,VALID,0,VALID,24.6361,VALID,61,VALID,0.424609,